This is the latest recevied weather packets stored in our database for station/object KE8RXN. If no packets are shown the sender has not sent any weather packets the latest 10 day(s).
| Time | Temp. | Humidity | Pressure | Rain* | Wind** | Luminosity | Snow |
|---|---|---|---|---|---|---|---|
| 1777908801 | 20° C | 48% | 1005.4 hPa | 0 mm | - | 895 W/m² | - |
| 1777908498 | 20° C | 48% | 1005.3 hPa | 0 mm | - | 892 W/m² | - |
| 1777908195 | 19.44° C | 49% | 1005.5 hPa | 0 mm | - | 895 W/m² | - |
| 1777907891 | 19.44° C | 50% | 1005.5 hPa | 0 mm | - | 777 W/m² | - |
| 1777907586 | 19.44° C | 52% | 1005.4 hPa | 0 mm | - | 632 W/m² | - |
| 1777907283 | 18.89° C | 54% | 1005.5 hPa | 0 mm | - | 567 W/m² | - |
| 1777906979 | 18.89° C | 54% | 1005.6 hPa | 0 mm | - | 517 W/m² | - |
| 1777906677 | 18.89° C | 53% | 1005.8 hPa | 0 mm | - | 565 W/m² | - |
| 1777906373 | 18.33° C | 54% | 1005.6 hPa | 0 mm | - | 602 W/m² | - |
| 1777906070 | 18.33° C | 55% | 1005.6 hPa | 0 mm | - | 740 W/m² | - |
| 1777905766 | 18.33° C | 56% | 1005.7 hPa | 0 mm | - | 709 W/m² | - |
| 1777905464 | 18.33° C | 58% | 1005.9 hPa | 0 mm | - | 735 W/m² | - |
| 1777905161 | 17.22° C | 58% | 1006.1 hPa | 0 mm | - | 710 W/m² | - |
| 1777904858 | 17.22° C | 61% | 1006 hPa | 0 mm | - | 675 W/m² | - |
| 1777904555 | 17.22° C | 61% | 1006 hPa | 0 mm | - | 646 W/m² | - |
| 1777904252 | 16.67° C | 62% | 1006.1 hPa | 0 mm | - | 587 W/m² | - |
| 1777903949 | 16.67° C | 62% | 1006.1 hPa | 0 mm | - | 616 W/m² | - |
| 1777903646 | 17.22° C | 63% | 1006.3 hPa | 0 mm | - | 599 W/m² | - |
| 1777903341 | 17.22° C | 64% | 1006.4 hPa | 0 mm | - | 585 W/m² | - |
| 1777903038 | 16.11° C | 65% | 1006.2 hPa | 0 mm | - | 524 W/m² | - |
| 1777902735 | 15.56° C | 66% | 1006.2 hPa | 0 mm | - | 481 W/m² | - |
| 1777902432 | 16.11° C | 66% | 1006.4 hPa | 0 mm | - | 477 W/m² | - |
| 1777902129 | 15.56° C | 68% | 1006.6 hPa | 0 mm | - | 438 W/m² | - |
| 1777901828 | 15° C | 68% | 1006.5 hPa | 0 mm | - | 401 W/m² | - |
| 1777901524 | 15° C | 69% | 1006.5 hPa | 0 mm | - | 381 W/m² | - |
* Rain latest hour (hover to see other rain measurements)
** Current wind speed in m/s (hover to see current wind gust speed)